• In Netherlands
  • List of Countries
  • For 7 days
  • Water Temperature
  • Satellite Maps
  • Weather Map
  • Weather Widgets
  • user-avatar
    Login

    Hourly Weather Kipungo

    Today, 26 June, Monday

    Time Temperature Precipitation Wind Pressure Humidity
    00:00 +12°C° 0 mm 1 mps 652 mmHg 53%
    01:00 +11°C° 0 mm 1 mps 652 mmHg 58%
    02:00 +11°C° 0 mm 1 mps 652 mmHg 63%
    03:00 +10°C° 0 mm 1 mps 651 mmHg 67%
    04:00 +8°C° 0 mm 0 mps 651 mmHg 72%
    05:00 +9°C° 0 mm 0 mps 651 mmHg 69%
    06:00 +9°C° 0 mm 0 mps 652 mmHg 66%
    07:00 +10°C° 0 mm 0 mps 652 mmHg 64%
    08:00 +15°C° 0 mm 0 mps 653 mmHg 49%
    09:00 +20°C° 0 mm 0 mps 655 mmHg 34%
    10:00 +28°C° 0 mm 1 mps 657 mmHg 20%
    11:00 +29°C° 0 mm 1 mps 656 mmHg 18%
    12:00 +30°C° 0 mm 2 mps 656 mmHg 16%
    13:00 +31°C° 0 mm 3 mps 656 mmHg 15%
    14:00 +31°C° 0 mm 3 mps 655 mmHg 14%
    15:00 +31°C° 0 mm 2 mps 655 mmHg 14%
    16:00 +31°C° 0 mm 2 mps 655 mmHg 14%
    17:00 +27°C° 0 mm 2 mps 654 mmHg 21%
    18:00 +23°C° 0 mm 2 mps 654 mmHg 27%
    19:00 +18°C° 0 mm 2 mps 653 mmHg 34%
    20:00 +17°C° 0 mm 2 mps 653 mmHg 38%
    21:00 +16°C° 0 mm 2 mps 654 mmHg 41%
    22:00 +15°C° 0 mm 2 mps 654 mmHg 44%
    23:00 +15°C° 0 mm 2 mps 654 mmHg 50%

    Tomorrow, 27 June, Tuesday

    Time Temperature Precipitation Wind Pressure Humidity
    00:00 +14°C° 0 mm 1 mps 653 mmHg 56%
    01:00 +13°C° 0 mm 1 mps 653 mmHg 61%
    02:00 +12°C° 0 mm 1 mps 653 mmHg 64%
    03:00 +12°C° 0 mm 1 mps 652 mmHg 66%
    04:00 +11°C° 0 mm 1 mps 652 mmHg 69%
    05:00 +11°C° 0 mm 1 mps 652 mmHg 70%
    06:00 +11°C° 0 mm 1 mps 653 mmHg 70%
    07:00 +11°C° 0 mm 0 mps 653 mmHg 71%
    08:00 +16°C° 0 mm 1 mps 655 mmHg 56%
    09:00 +22°C° 0 mm 1 mps 656 mmHg 41%
    10:00 +26°C° 0 mm 1 mps 657 mmHg 26%
    11:00 +28°C° 0 mm 1 mps 657 mmHg 23%
    12:00 +30°C° 0 mm 1 mps 657 mmHg 19%
    13:00 +32°C° 0 mm 1 mps 657 mmHg 16%
    14:00 +32°C° 0 mm 1 mps 656 mmHg 16%
    15:00 +31°C° 0 mm 1 mps 656 mmHg 16%
    16:00 +29°C° 0 mm 0 mps 655 mmHg 16%
    17:00 +27°C° 0 mm 1 mps 654 mmHg 23%
    18:00 +22°C° 0 mm 1 mps 653 mmHg 30%
    19:00 +18°C° 0 mm 1 mps 653 mmHg 37%
    20:00 +18°C° 0 mm 1 mps 653 mmHg 36%
    21:00 +17°C° 0 mm 2 mps 654 mmHg 36%
    22:00 +17°C° 0 mm 2 mps 654 mmHg 36%
    23:00 +16°C° 0 mm 2 mps 654 mmHg 37%

    Day after tomorrow, 28 June, Wednesday

    Time Temperature Precipitation Wind Pressure Humidity
    00:00 +16°C° 0 mm 2 mps 654 mmHg 39%
    01:00 +15°C° 0 mm 2 mps 653 mmHg 40%
    02:00 +14°C° 0 mm 2 mps 653 mmHg 42%
    03:00 +13°C° 0 mm 1 mps 652 mmHg 45%
    04:00 +12°C° 0 mm 1 mps 652 mmHg 47%
    05:00 +12°C° 0 mm 1 mps 652 mmHg 48%
    06:00 +12°C° 0 mm 1 mps 652 mmHg 50%
    07:00 +12°C° 0 mm 1 mps 653 mmHg 52%
    08:00 +16°C° 0 mm 1 mps 654 mmHg 41%
    09:00 +22°C° 0 mm 1 mps 656 mmHg 29%
    10:00 +26°C° 0 mm 2 mps 657 mmHg 18%
    11:00 +28°C° 0 mm 2 mps 657 mmHg 17%
    12:00 +30°C° 0 mm 1 mps 656 mmHg 15%
    13:00 +32°C° 0 mm 1 mps 656 mmHg 13%
    14:00 +32°C° 0 mm 1 mps 655 mmHg 13%
    15:00 +31°C° 0 mm 1 mps 655 mmHg 13%
    16:00 +29°C° 0 mm 0 mps 654 mmHg 12%
    17:00 +27°C° 0 mm 1 mps 654 mmHg 18%
    18:00 +23°C° 0 mm 1 mps 653 mmHg 24%
    19:00 +18°C° 0 mm 1 mps 652 mmHg 30%
    20:00 +17°C° 0 mm 2 mps 652 mmHg 30%
    21:00 +17°C° 0 mm 2 mps 653 mmHg 30%
    22:00 +16°C° 0 mm 2 mps 653 mmHg 29%
    23:00 +15°C° 0 mm 1 mps 653 mmHg 32%

    29 June, Thursday

    Time Temperature Precipitation Wind Pressure Humidity
    00:00 +14°C° 0 mm 1 mps 652 mmHg 35%
    01:00 +13°C° 0 mm 1 mps 652 mmHg 38%
    02:00 +12°C° 0 mm 1 mps 651 mmHg 39%
    03:00 +12°C° 0 mm 1 mps 651 mmHg 40%
    04:00 +11°C° 0 mm 1 mps 651 mmHg 41%
    05:00 +12°C° 0 mm 1 mps 652 mmHg 42%
    06:00 +12°C° 0 mm 1 mps 652 mmHg 42%
    07:00 +12°C° 0 mm 1 mps 653 mmHg 43%
    08:00 +18°C° 0 mm 1 mps 654 mmHg 35%
    09:00 +21°C° 0 mm 2 mps 656 mmHg 28%
    10:00 +27°C° 0 mm 3 mps 657 mmHg 20%
    11:00 +28°C° 0 mm 3 mps 657 mmHg 19%
    12:00 +30°C° 0 mm 3 mps 656 mmHg 18%
    13:00 +33°C° 0 mm 3 mps 656 mmHg 16%
    14:00 +32°C° 0 mm 2 mps 656 mmHg 16%
    15:00 +31°C° 0 mm 2 mps 655 mmHg 16%
    16:00 +31°C° 0 mm 1 mps 655 mmHg 16%
    17:00 +27°C° 0 mm 1 mps 654 mmHg 23%
    18:00 +23°C° 0 mm 1 mps 654 mmHg 29%
    19:00 +19°C° 0 mm 1 mps 653 mmHg 36%
    20:00 +18°C° 0 mm 1 mps 654 mmHg 36%
    21:00 +16°C° 0 mm 1 mps 654 mmHg 37%
    22:00 +16°C° 0 mm 2 mps 654 mmHg 38%
    23:00 +15°C° 0 mm 1 mps 654 mmHg 39%

    30 June, Friday

    Time Temperature Precipitation Wind Pressure Humidity
    00:00 +14°C° 0 mm 1 mps 654 mmHg 41%
    01:00 +13°C° 0 mm 1 mps 653 mmHg 42%
    02:00 +13°C° 0 mm 1 mps 653 mmHg 45%
    03:00 +12°C° 0 mm 1 mps 653 mmHg 47%
    04:00 +11°C° 0 mm 1 mps 652 mmHg 50%
    05:00 +11°C° 0 mm 1 mps 653 mmHg 50%
    06:00 +12°C° 0 mm 1 mps 653 mmHg 51%
    07:00 +12°C° 0 mm 1 mps 654 mmHg 51%
    08:00 +16°C° 0 mm 1 mps 655 mmHg 41%
    09:00 +21°C° 0 mm 2 mps 656 mmHg 31%
    10:00 +26°C° 0 mm 3 mps 658 mmHg 21%
    11:00 +28°C° 0 mm 3 mps 657 mmHg 19%
    12:00 +29°C° 0 mm 2 mps 657 mmHg 17%
    13:00 +31°C° 0 mm 2 mps 656 mmHg 15%
    14:00 +31°C° 0 mm 2 mps 656 mmHg 15%
    15:00 +31°C° 0 mm 2 mps 656 mmHg 15%
    16:00 +31°C° 0 mm 1 mps 655 mmHg 15%
    17:00 +27°C° 0 mm 1 mps 654 mmHg 22%
    18:00 +22°C° 0 mm 1 mps 654 mmHg 28%
    19:00 +18°C° 0 mm 1 mps 653 mmHg 35%
    20:00 +18°C° 0 mm 1 mps 653 mmHg 36%
    21:00 +16°C° 0 mm 1 mps 653 mmHg 38%
    22:00 +15°C° 0 mm 1 mps 654 mmHg 39%
    23:00 +14°C° 0 mm 1 mps 653 mmHg 41%

    1 July, Saturday

    Time Temperature Precipitation Wind Pressure Humidity
    00:00 +14°C° 0 mm 1 mps 653 mmHg 44%
    01:00 +13°C° 0 mm 1 mps 653 mmHg 46%
    02:00 +12°C° 0 mm 1 mps 652 mmHg 50%
    03:00 +11°C° 0 mm 1 mps 652 mmHg 54%
    04:00 +11°C° 0 mm 1 mps 652 mmHg 57%
    05:00 +11°C° 0 mm 1 mps 652 mmHg 55%
    06:00 +12°C° 0 mm 1 mps 653 mmHg 53%
    07:00 +12°C° 0 mm 1 mps 653 mmHg 50%
    08:00 +16°C° 0 mm 2 mps 655 mmHg 41%
    09:00 +21°C° 0 mm 2 mps 656 mmHg 31%
    10:00 +26°C° 0 mm 3 mps 657 mmHg 21%
    11:00 +27°C° 0 mm 3 mps 657 mmHg 19%
    12:00 +29°C° 0 mm 2 mps 656 mmHg 17%
    13:00 +31°C° 0 mm 2 mps 656 mmHg 15%
    14:00 +31°C° 0 mm 2 mps 656 mmHg 15%
    15:00 +31°C° 0 mm 2 mps 655 mmHg 14%
    16:00 +30°C° 0 mm 1 mps 655 mmHg 14%
    17:00 +26°C° 0 mm 1 mps 654 mmHg 20%
    18:00 +21°C° 0 mm 2 mps 654 mmHg 26%
    19:00 +18°C° 0 mm 2 mps 653 mmHg 31%
    20:00 +17°C° 0 mm 2 mps 653 mmHg 33%
    21:00 +16°C° 0 mm 1 mps 653 mmHg 35%
    22:00 +15°C° 0 mm 1 mps 654 mmHg 37%
    23:00 +14°C° 0 mm 1 mps 653 mmHg 42%
    Show more